EW0729 Weather Reports


time (UTC)temp
F
wind
direction
speed
knots
gust
knots
rain 1hr
in
rain 24hr
in
rain mn
in
humidity
%
barometer
mb
20260503004735 61 263 0.0 1.7 0.00 0.00 0.00 37 1012.3
20260503004604 61 265 0.0 2.6 0.00 0.00 0.00 37 1012.4
20260503003105 61 286 0.9 2.6 0.00 0.00 0.00 36 1012.6
20260503002521 62 294 0.9 3.5 0.00 0.00 0.00 36 1012.5
20260503001503 62 284 0.9 4.3 0.00 0.00 0.00 36 1012.7
20260503000330 62 287 0.9 2.6 0.00 0.00 0.00 36 1012.6
20260502235257 62 291 0.9 2.6 0.00 0.00 0.00 36 1012.7
20260502234510 62 280 0.9 3.5 0.00 0.00 0.00 36 1012.9
20260502234240 62 282 0.9 2.6 0.00 0.00 0.00 36 1012.8
20260502233216 62 283 0.9 2.6 0.00 0.00 0.00 35 1012.9
20260502233002 62 282 0.0 3.5 0.00 0.00 0.00 35 1013.1
20260502232219 62 269 0.9 2.6 0.00 0.00 0.00 35 1013.1
20260502231607 62 289 0.9 2.6 0.00 0.00 0.00 35 1013.2
20260502231208 62 302 0.9 2.6 0.00 0.00 0.00 35 1013.2
20260502230151 62 303 1.7 6.1 0.00 0.00 0.00 35 1013.4
20260502230002 62 284 0.9 6.1 0.00 0.00 0.00 35 1013.4
20260502225157 63 300 2.6 6.1 0.00 0.00 0.00 35 1013.4
20260502224503 62 280 4.3 7.8 0.00 0.00 0.00 35 1013.5
20260502223103 62 261 2.6 7.0 0.00 0.00 0.00 35 1013.5
20260502223040 63 290 2.6 7.0 0.00 0.00 0.00 35 1013.5
20260502222047 64 286 0.9 7.0 0.00 0.00 0.00 35 1013.7
20260502221606 63 281 0.9 7.8 0.00 0.00 0.00 35 1013.6
20260502221058 63 263 0.9 2.6 0.00 0.00 0.00 35 1013.7
20260502220147 63 263 1.7 7.8 0.00 0.00 0.00 35 1013.9
20260502220046 63 229 1.7 6.1 0.00 0.00 0.00 35 1013.8
20260502215058 63 300 1.7 7.0 0.00 0.00 0.00 35 1014.1
20260502214055 63 283 1.7 7.0 0.00 0.00 0.00 35 1014.2
20260502213108 63 261 1.7 7.8 0.00 0.00 0.00 36 1014.3
20260502213029 63 227 0.9 7.0 0.00 0.00 0.00 36 1014.2
20260502212050 63 298 0.9 6.1 0.00 0.00 0.00 36 1014.4
20260502211503 62 229 1.7 7.0 0.00 0.00 0.00 36 1014.5
20260502211037 61 261 1.7 7.0 0.00 0.00 0.00 36 1014.5
20260502210045 61 227 1.7 7.0 0.00 0.00 0.00 36 1014.7
20260502210002 60 284 3.5 7.8 0.00 0.00 0.00 36 1014.7
20260502205027 61 281 1.7 7.0 0.00 0.00 0.00 36 1014.8
20260502204612 61 277 0.9 5.2 0.00 0.00 0.00 36 1015.0
20260502203954 62 289 2.6 7.0 0.00 0.00 0.00 36 1015.0
20260502203121 61 278 2.6 7.0 0.00 0.00 0.00 36 1015.2
20260502201824 62 294 0.9 7.8 0.00 0.00 0.00 37 1015.5
20260502201505 61 304 1.7 5.2 0.00 0.00 0.00 37 1015.5
20260502200832 61 279 2.6 7.8 0.00 0.00 0.00 37 1015.6
20260502200104 60 310 2.6 7.8 0.00 0.00 0.00 37 1015.6
20260502195816 61 277 1.7 7.0 0.00 0.00 0.00 37 1015.6
20260502194749 60 285 1.7 6.1 0.00 0.00 0.00 37 1015.9
20260502194502 60 291 1.7 7.0 0.00 0.00 0.00 37 1016.0
20260502193731 60 288 1.7 6.1 0.00 0.00 0.00 38 1016.1
20260502193003 59 298 1.7 7.0 0.00 0.00 0.00 38 1016.2
20260502191603 60 267 1.7 6.1 0.00 0.00 0.00 39 1016.4
20260502190620 59 296 1.7 5.2 0.00 0.00 0.00 39 1016.6
20260502190002 59 290 1.7 6.1 0.00 0.00 0.00 39 1016.8
20260502185625 59 296 1.7 6.1 0.00 0.00 0.00 39 1016.9
20260502184614 59 306 1.7 7.8 0.00 0.00 0.00 40 1016.9
20260502184602 58 306 2.6 7.0 0.00 0.00 0.00 40 1017.0
20260502183620 58 270 1.7 7.8 0.00 0.00 0.00 40 1017.1
20260502183004 57 311 2.6 7.8 0.00 0.00 0.00 40 1017.4
20260502182606 58 288 1.7 7.0 0.00 0.00 0.00 40 1017.4
20260502181605 57 272 1.7 8.7 0.00 0.00 0.00 41 1017.5
20260502181601 57 271 2.6 7.0 0.00 0.00 0.00 41 1017.5
20260502180536 57 288 1.7 8.7 0.00 0.00 0.00 42 1017.7
20260502180115 56 232 1.7 8.7 0.00 0.00 0.00 42 1017.7
20260502163450 55 284 1.7 7.8 0.00 0.00 0.00 45 1018.7
20260502163112 55 279 1.7 7.8 0.00 0.00 0.00 45 1018.9
20260502162448 55 277 1.7 7.8 0.00 0.00 0.00 46 1018.9
20260502161504 54 290 1.7 7.0 0.00 0.00 0.00 46 1019.0
20260502161423 55 295 1.7 6.1 0.00 0.00 0.00 46 1018.9
20260502160407 55 296 1.7 7.8 0.00 0.00 0.00 47 1019.0
20260502160107 54 291 0.9 8.7 0.00 0.00 0.00 47 1019.0
20260502151506 53 282 0.9 3.5 0.00 0.00 0.00 53 1019.3
20260502151313 53 273 0.9 6.1 0.00 0.00 0.00 53 1019.3
20260502150308 53 329 1.7 6.1 0.00 0.00 0.00 54 1019.3
20260502150106 52 278 2.6 7.0 0.00 0.00 0.00 55 1019.4
20260502130110 41 227 0.9 3.5 0.00 0.00 0.00 68 1019.9
20260502122443 38 257 0.0 0.9 0.00 0.00 0.00 69 1019.8
20260502121503 37 257 0.0 1.7 0.00 0.00 0.00 69 1019.7
20260502120337 37 257 0.0 1.7 0.00 0.00 0.00 69 1019.7
20260502115355 37 257 0.0 1.7 0.00 0.00 0.00 69 1019.7
20260502114605 36 257 0.9 2.6 0.00 0.00 0.00 69 1019.7
20260502114359 36 257 0.0 1.7 0.00 0.00 0.00 69 1019.6
20260502113411 36 257 0.0 0.9 0.00 0.00 0.00 68 1019.6
20260502113103 36 257 0.9 2.6 0.00 0.00 0.00 68 1019.6
20260502111502 35 257 0.9 2.6 0.00 0.00 0.00 68 1019.6
20260502111302 36 257 0.0 1.7 0.00 0.00 0.00 68 1019.5
20260502110106 35 257 0.9 2.6 0.00 0.00 0.00 67 1019.5
20260502105141 36 256 0.9 1.7 0.00 0.00 0.00 67 1019.5
20260502104502 36 256 0.9 2.6 0.00 0.00 0.00 67 1019.5
20260502104156 36 254 0.9 1.7 0.00 0.00 0.00 67 1019.5
20260502103154 36 253 0.9 1.7 0.00 0.00 0.00 67 1019.5
20260502103003 36 253 0.9 2.6 0.00 0.00 0.00 67 1019.5
20260502102147 36 253 0.0 0.9 0.00 0.00 0.00 66 1019.5
20260502101502 36 253 0.9 1.7 0.00 0.00 0.00 66 1019.5
20260502100105 36 253 0.9 2.6 0.00 0.00 0.00 65 1019.5
20260502091502 37 223 0.0 0.9 0.00 0.00 0.00 64 1019.6
20260502090952 37 223 0.0 0.0 0.00 0.00 0.00 64 1019.5
20260502071503 37 23 0.0 1.7 0.00 0.00 0.00 62 1019.7
20260502070601 38 23 0.0 0.0 0.00 0.00 0.00 62 1019.6
20260502065625 38 23 0.0 0.9 0.00 0.00 0.00 61 1019.7
20260502064616 38 22 0.0 0.0 0.00 0.00 0.00 61 1019.8
20260502064502 38 22 0.0 0.9 0.00 0.00 0.00 61 1019.9
20260502063002 38 22 0.0 0.0 0.00 0.00 0.00 60 1019.9
20260502062435 38 22 0.0 0.0 0.00 0.00 0.00 60 1019.9
20260502061502 38 22 0.0 1.7 0.00 0.00 0.00 59 1019.9
20260502060512 39 22 0.0 0.0 0.00 0.00 0.00 58 1019.9
20260502060104 38 22 0.0 0.0 0.00 0.00 0.00 58 1019.9
20260502055448 39 22 0.0 0.0 0.00 0.00 0.00 57 1019.8
20260502054510 40 22 0.0 0.0 0.00 0.00 0.00 56 1019.8
20260502054502 39 22 0.0 0.9 0.00 0.00 0.00 56 1019.9
20260502053438 40 22 0.0 0.0 0.00 0.00 0.00 55 1019.8
20260502052431 40 22 0.0 0.0 0.00 0.00 0.00 54 1019.7
20260502051505 40 22 0.0 0.0 0.00 0.00 0.00 53 1019.7
20260502051455 40 22 0.0 0.0 0.00 0.00 0.00 53 1019.7
20260502050457 41 22 0.0 0.0 0.00 0.00 0.00 52 1019.7
20260502044504 41 22 0.0 0.0 0.00 0.00 0.00 50 1019.6
20260502044323 42 22 0.0 0.0 0.00 0.00 0.00 50 1019.7
20260502043108 42 22 0.0 0.0 0.00 0.00 0.00 49 1019.8
20260502041503 43 22 0.0 0.0 0.00 0.00 0.00 47 1019.6
20260502034503 44 22 0.0 0.0 0.00 0.00 0.00 45 1019.6
20260502033553 45 22 0.0 0.0 0.00 0.00 0.00 44 1019.7
20260502033003 44 22 0.0 0.0 0.00 0.00 0.00 44 1019.7
20260502032530 45 22 0.0 0.0 0.00 0.00 0.00 43 1019.6
20260502031513 45 22 0.0 0.0 0.00 0.00 0.00 43 1019.7
20260502031503 45 22 0.0 0.0 0.00 0.00 0.00 43 1019.7
20260502030108 45 22 0.0 0.0 0.00 0.00 0.00 43 1019.6
20260502025351 46 22 0.0 0.0 0.00 0.00 0.00 43 1019.6
20260502024508 45 22 0.0 0.0 0.00 0.00 0.00 43 1019.6
20260502024353 46 22 0.0 0.0 0.00 0.00 0.00 43 1019.6
20260502023411 46 22 0.0 0.0 0.00 0.00 0.00 42 1019.5
20260502023003 46 22 0.0 0.0 0.00 0.00 0.00 42 1019.6
20260502022403 47 22 0.0 0.0 0.00 0.00 0.00 42 1019.5
20260502021616 47 22 0.0 0.9 0.00 0.00 0.00 42 1019.5
20260502020310 48 22 0.0 0.0 0.00 0.00 0.00 41 1019.4
20260502020003 47 22 0.0 1.7 0.00 0.00 0.00 40 1019.4
20260502015251 48 22 0.0 0.0 0.00 0.00 0.00 40 1019.3
20260502014604 48 22 0.0 1.7 0.00 0.00 0.00 39 1019.2
20260502014258 48 22 0.0 0.9 0.00 0.00 0.00 39 1019.2
20260502013304 49 22 0.0 1.7 0.00 0.00 0.00 39 1019.2
20260502013105 48 22 0.9 2.6 0.00 0.00 0.00 39 1019.2
20260502012244 49 17 0.9 3.5 0.00 0.00 0.00 38 1019.1
20260502011503 49 18 1.7 4.3 0.00 0.00 0.00 38 1019.1
20260502010133 49 24 0.9 7.0 0.00 0.00 0.00 37 1018.9